Hourly Data Report for August 07, 2021

KUGLUKTUK A
NUNAVUT
Current Station Operator: NAVCAN

67°49'00.000" N
115°08'38.000" W
22.60 m
2300903
71938
YCO

Download Data

Hourly Data (August 2021)
Hourly Data Report for August 7, 2021
TIME
LST
Temp Definition
°C
Dew Point Definition
°C
Rel Hum Definition
%
Precip. Amount Definition
mm

Wind Dir Definition
10's deg

Wind Spd Definition
km/h
Visibility Definition
km
Stn Press Definition
kPa
Hmdx Definition


Wind Chill Definition


Weather Definition


00:00 5.8 2.5 80   35 14 24.1 100.47     LegendNANA
01:00 5.4 2.3 80   30 14 24.1 100.49     LegendNANA
02:00 5.0 2.3 82   29 15 24.1 100.48     Cloudy
03:00 5.0 1.4 77   30 22 24.1 100.48     LegendNANA
04:00 4.7 1.5 80   30 17 24.1 100.46     LegendNANA
05:00 5.2 1.9 79   28 15 24.1 100.45     Cloudy
06:00 5.3 2.8 84   28 10 24.1 100.46     LegendNANA
07:00 5.5 2.5 80   31 21 24.1 100.45     LegendNANA
08:00 5.8 2.2 78   31 25 24.1 100.46     Cloudy
09:00 6.0 2.0 75   30 21 24.1 100.48     LegendNANA
10:00 7.0 2.6 74   32 26 24.1 100.44     LegendNANA
11:00 7.2 2.3 71   31 31 24.1 100.44     Cloudy
12:00 7.9 2.5 69   33 24 24.1 100.39     LegendNANA
13:00 7.5 2.7 72   32 28 24.1 100.36     LegendNANA
14:00 8.3 1.5 62   30 29 24.1 100.35     Mostly Cloudy
15:00 7.5 2.3 70   31 39 24.1 100.38     LegendNANA
16:00 6.7 1.8 71   32 37 24.1 100.38     LegendNANA
17:00 6.6 2.0 73   31 27 24.1 100.39     Cloudy
18:00 6.3 1.7 72   32 40 24.1 100.39     LegendNANA
19:00 5.9 1.9 76   32 37 24.1 100.39     LegendNANA
20:00 5.3 2.0 79   32 36 24.1 100.38     Cloudy
21:00 5.0 1.8 80   31 40 24.1 100.36     LegendNANA
22:00 5.0 1.7 79   31 27 24.1 100.37     LegendNANA
23:00 4.1 1.6 84   30 27 24.1 100.37     Rain

Notes on Data Quality.

Legend

  • E = Estimated
  • M = Missing
  • NA = Not Available*
  • [empty] = Indicates an unobserved value
Date modified: